Location: Nelson
(41.2830°S, 173.2830°E)
Time: 13:58:45
(UTC+13:00)

Cosmos 2360 Rocket - Pass Details

Date: 24 January 2019
Orbit: 834 x 845 km, 71.0° (Epoch: 19 February)

Event Time Altitude Azimuth Distance (km) Brightness Sun altitude
Exits shadow 22:43:36 - 344° (NNW) 2,975 4.8 -17.1°
Reaches altitude 10° 22:44:56 10° 345° (NNW) 2,470 4.3 -17.3°
Maximum altitude 22:50:36 75° 69° (ENE) 885 2.1 -18.0°
Drops below altitude 10° 22:56:19 10° 153° (SSE) 2,497 4.9 -18.7°
Sets 22:58:48 0° 154° (SSE) 3,437 5.7 -19.0°
